Location: Kelshall
(52.0000°N, 0.0500°W)
Time: 13:25:13
(UTC+00:00)

NOSS 2-2 (E) - Pass Details

Date: 18 September 2020
Orbit: 468 x 1739 km, 63.3° (Epoch: 22 October)

Event Time Altitude Azimuth Distance (km) Brightness Sun altitude
Rises 19:12:01 0° 203° (SSW) 2,494 6.8 -10.7°
Reaches altitude 10° 19:14:07 10° 195° (SSW) 1,633 5.7 -11.0°
Maximum altitude 19:17:25 39° 125° (SE) 765 3.6 -11.5°
Drops below altitude 10° 19:21:12 10° 56° (NE) 1,872 5.7 -12.0°
Sets 19:23:45 0° 49° (NE) 2,924 6.7 -12.4°
